Tel Aviv, Israel

11:34 PM IST on November 17, 2018 (GMT +0200)
Ben Gurion

Weather History for LLBG - November, 2018

Change the Weather History Date:

Friday, November 9, 2018

  Actual Average Record
Temperature  
Mean Temperature 70 °F -  
Max Temperature 80 °F 71 °F 87 °F (2002)
Min Temperature 59 °F 54 °F 50 °F (2006)
Cooling Degree Days 4    
Growing Degree Days 20 (Base 50)    
Moisture  
Dew Point 55 °F    
Average Humidity 61    
Maximum Humidity 88    
Minimum Humidity 32    
Precipitation  
Precipitation 0.00 in - - ()
Sea Level Pressure  
Sea Level Pressure 29.90 in    
Wind  
Wind Speed 3 mph ()    
Max Wind Speed 12 mph    
Max Gust Speed -    
Visibility 6.1 miles    
Events      
Averages and records for this station are not official NWS values.
T = Trace of Precipitation, MM = Missing Value Source: Averaged Metar Reports

Daily Weather History Graph

Daily Weather History Graph

Search for Another Location

Airport or City:

Astronomy

Nov. 09, 2018 Rise Set
Actual Time 6:03 AM IST 4:44 PM IST
Civil Twilight 5:37 AM IST 5:10 PM IST
Nautical Twilight 5:08 AM IST 5:39 PM IST
Astronomical Twilight 4:39 AM IST 6:08 PM IST
Moon 7:30 AM IST (11/9) 6:18 PM IST (11/9)
Length of Visible Light 11h 32m
Length of Day
10h 40m
Waxing Crescent, 3% of the Moon is Illuminated
Nov 9
Waxing Crescent
Nov 15
First Quarter
Nov 23
Full
Nov 30
Last Quarter
Dec 7
New

Hourly Weather History & Observations

Time (IST) Temp. Dew Point Humidity Pressure Visibility Wind Dir Wind Speed Gust Speed Precip Events Conditions
12:20 AM 64.4 °F 57.2 °F 77% 29.95 in - Variable 2.3 mph - N/A   Clear
12:50 AM 62.6 °F 57.2 °F 82% 29.95 in - Variable 1.2 mph - N/A   Clear
1:20 AM 62.6 °F 57.2 °F 82% 29.95 in - Variable 3.5 mph - N/A   Clear
1:50 AM 62.6 °F 57.2 °F 82% 29.95 in - Variable 2.3 mph - N/A   Clear
2:00 AM 63 °F 57 °F 74% 29.94 in 6 mi ESE 2.2 mph - -   Scattered Clouds
2:20 AM 60.8 °F 57.2 °F 88% 29.92 in - Variable 2.3 mph - N/A   Clear
2:50 AM 60.8 °F 55.4 °F 82% 29.92 in - Variable 1.2 mph - N/A   Clear
3:20 AM 59.0 °F 55.4 °F 88% 29.92 in - Variable 1.2 mph - N/A   Clear
3:50 AM 60.8 °F 55.4 °F 82% 29.92 in - Variable 1.2 mph - N/A   Clear
4:20 AM 60.8 °F 57.2 °F 88% 29.92 in - Variable 2.3 mph - N/A   Clear
4:50 AM 60.8 °F 55.4 °F 82% 29.92 in - Variable 2.3 mph - N/A   Clear
5:00 AM 59 °F 54 °F 79% 29.93 in 6 mi East 2.2 mph - -   Clear
5:20 AM 59.0 °F 53.6 °F 82% 29.92 in - Variable 3.5 mph - N/A   Clear
5:50 AM 59.0 °F 53.6 °F 82% 29.92 in 6.2 mi Variable 2.3 mph - N/A   Partly Cloudy
6:20 AM 59.0 °F 53.6 °F 82% 29.92 in 6.2 mi SE 4.6 mph - N/A   Partly Cloudy
7:20 AM 62.6 °F 53.6 °F 72% 29.95 in 6.2 mi Variable 2.3 mph - N/A   Partly Cloudy
7:50 AM 64.4 °F 55.4 °F 73% 29.95 in 6.2 mi Variable 1.2 mph - N/A   Partly Cloudy
8:20 AM 68.0 °F 53.6 °F 60% 29.95 in 6.2 mi Variable 1.2 mph - N/A   Partly Cloudy
8:50 AM 69.8 °F 53.6 °F 56% 29.95 in 6.2 mi Variable 1.2 mph - N/A   Partly Cloudy
9:20 AM 71.6 °F 53.6 °F 53% 29.95 in 6.2 mi Variable 1.2 mph - N/A   Partly Cloudy
9:50 AM 73.4 °F 53.6 °F 50% 29.95 in 6.2 mi Variable 2.3 mph - N/A   Partly Cloudy
10:20 AM 75.2 °F 53.6 °F 47% 29.92 in 6.2 mi Variable 2.3 mph - N/A   Partly Cloudy
10:50 AM 77.0 °F 53.6 °F 44% 29.92 in 6.2 mi Variable 2.3 mph - N/A   Partly Cloudy
11:00 AM 77 °F 53 °F 32% 29.92 in 6 mi WNW 2.2 mph - -   Scattered Clouds
11:20 AM 77.0 °F 51.8 °F 41% 29.92 in 6.2 mi Variable 2.3 mph - N/A   Partly Cloudy
11:50 AM 78.8 °F 53.6 °F 42% 29.89 in 6.2 mi Variable 3.5 mph - N/A   Partly Cloudy
12:20 PM 78.8 °F 51.8 °F 39% 29.89 in 6.2 mi Variable 3.5 mph - N/A   Partly Cloudy
12:50 PM 80.6 °F 51.8 °F 37% 29.86 in 6.2 mi SW 4.6 mph - N/A   Partly Cloudy
1:20 PM 78.8 °F 55.4 °F 44% 29.86 in 6.2 mi WNW 11.5 mph - N/A   Partly Cloudy
1:50 PM 77.0 °F 55.4 °F 47% 29.86 in 6.2 mi WNW 10.4 mph - N/A   Partly Cloudy
2:00 PM 77 °F 55 °F 36% 29.86 in 6 mi WNW 8.9 mph - -   Partly Cloudy
2:20 PM 77.0 °F 55.4 °F 47% 29.86 in 6.2 mi WNW 10.4 mph - N/A   Partly Cloudy
2:50 PM 75.2 °F 55.4 °F 50% 29.86 in - WNW 11.5 mph - N/A   Clear
3:20 PM 75.2 °F 57.2 °F 53% 29.86 in - WNW 10.4 mph - N/A   Clear
3:50 PM 75.2 °F 59.0 °F 57% 29.86 in - WNW 9.2 mph - N/A   Clear
4:50 PM 75.2 °F 57.2 °F 53% 29.86 in - Variable 3.5 mph - N/A   Clear
5:00 PM 74 °F 58 °F 46% 29.87 in 6 mi North 2.2 mph - -   Partly Cloudy
5:20 PM 75.2 °F 57.2 °F 53% 29.86 in - Variable 2.3 mph - N/A   Clear
5:50 PM 73.4 °F 57.2 °F 57% 29.86 in - Variable 3.5 mph - N/A   Clear
6:20 PM 73.4 °F 59.0 °F 61% 29.89 in - SE 4.6 mph - N/A   Clear
6:50 PM 73.4 °F 53.6 °F 50% 29.89 in - Variable 3.5 mph - N/A   Clear
7:20 PM 69.8 °F 53.6 °F 56% 29.89 in - East 4.6 mph - N/A   Clear
7:50 PM 68.0 °F 55.4 °F 64% 29.89 in - East 4.6 mph - N/A   Clear
8:00 PM 69 °F 54 °F 49% 29.90 in 6 mi East 4.5 mph - -   Scattered Clouds
8:20 PM 68.0 °F 53.6 °F 60% 29.89 in - NE 4.6 mph - N/A   Clear
8:50 PM 69.8 °F 53.6 °F 56% 29.89 in - Variable 2.3 mph - N/A   Clear
9:20 PM 68.0 °F 53.6 °F 60% 29.89 in - Variable 2.3 mph - N/A   Clear
9:50 PM 68.0 °F 53.6 °F 60% 29.89 in - Variable 1.2 mph - N/A   Clear
10:20 PM 68.0 °F 53.6 °F 60% 29.89 in - Variable 1.2 mph - N/A   Clear
10:50 PM 68.0 °F 53.6 °F 60% 29.89 in - Variable 1.2 mph - N/A   Clear
11:00 PM 67 °F 53 °F 50% 29.89 in 6 mi ENE 2.2 mph - -   Clear
11:20 PM 66.2 °F 53.6 °F 64% 29.89 in - Variable 1.2 mph - N/A   Clear